Weather History for Tacoma, WA

Change the Weather History Date:

Friday, November 4, 2011

  Actual Average Record
Temperature  
Mean Temperature 36 °F -  
Max Temperature 45 °F 53 °F 70 °F (1975)
Min Temperature 28 °F 34 °F 21 °F (2002)
Degree Days  
Heating Degree Days 28    
Moisture  
Dew Point 32 °F    
Average Humidity 97    
Maximum Humidity 100    
Minimum Humidity 76    
Precipitation  
Precipitation 0.00 in - - ()
Sea Level Pressure  
Sea Level Pressure 29.93 in    
Wind  
Wind Speed 0 mph (ESE)    
Max Wind Speed 6 mph    
Max Gust Speed -    
Visibility 4 miles    
Events Fog    
Averages and records for this station are not official NWS values.
T = Trace of Precipitation, MM = Missing Value Source: NWS Daily Summary

Daily Weather History Graph

Daily Weather History Graph

Search for Another Location

Airport:

Trip Planner

Search our weather history database for the weather conditions in past years. The results will help you decide how hot, cold, wet, or windy it might be!

Date:

Astronomy

Nov. 04, 2011 Rise Set
Actual Time 7:57 AM PDT 5:49 PM PDT
Civil Twilight 7:24 AM PDT 6:21 PM PDT
Nautical Twilight 6:48 AM PDT 6:57 PM PDT
Astronomical Twilight 6:13 AM PDT 7:33 PM PDT
Moon 3:02 PM PDT (11/4) 1:53 AM PDT (11/4)
Length of Visible Light 10h 56m
Length of Day
9h 52m
Waxing Gibbous, 70% of the Moon is Illuminated
Nov 4
Waxing Gibbous
Nov 10
Full
Nov 18
Last Quarter
Nov 24
New
Dec 2
First Quarter

Hourly Weather History & Observations

Time (PDT) Temp. Windchill Dew Point Humidity Pressure Visibility Wind Dir Wind Speed Gust Speed Precip Events Conditions
12:06 AM 33.8 °F - 32.0 °F 93% 29.91 in 1.5 mi Calm Calm - N/A   Partly Cloudy
12:13 AM 32.0 °F - 32.0 °F 100% 29.91 in 1.8 mi Calm Calm - N/A   Clear
12:14 AM 32.0 °F - 32.0 °F 100% 29.91 in 2.0 mi Calm Calm - N/A   Clear
12:15 AM 32.0 °F - 32.0 °F 100% 29.91 in 2.5 mi Calm Calm - N/A   Clear
12:16 AM 32.0 °F - 32.0 °F 100% 29.91 in 3.0 mi Calm Calm - N/A   Clear
12:24 AM 32.0 °F - 32.0 °F 100% 29.91 in 2.5 mi Calm Calm - N/A   Clear
12:25 AM 32.0 °F - 32.0 °F 100% 29.91 in 1.8 mi Calm Calm - N/A   Clear
12:26 AM 32.0 °F - 32.0 °F 100% 29.91 in 1.5 mi Calm Calm - N/A   Clear
12:28 AM 32.0 °F - 32.0 °F 100% 29.91 in 1.0 mi Calm Calm - N/A   Clear
12:29 AM 32.0 °F - 32.0 °F 100% 29.91 in 0.8 mi Calm Calm - N/A   Clear
12:30 AM 32.0 °F - 32.0 °F 100% 29.91 in 0.8 mi Calm Calm - N/A   Clear
12:36 AM 32.0 °F - 32.0 °F 100% 29.91 in 0.8 mi Calm Calm - N/A   Clear
12:37 AM 32.0 °F - 32.0 °F 100% 29.91 in 0.8 mi Calm Calm - N/A   Clear
12:39 AM 32.0 °F - 32.0 °F 100% 29.91 in 1.0 mi Calm Calm - N/A   Clear
12:41 AM 32.0 °F 28.7 °F 32.0 °F 100% 29.91 in 1.2 mi SSE 3.5 mph - N/A   Clear
12:44 AM 32.0 °F - 32.0 °F 100% 29.91 in 2.0 mi Calm Calm - N/A   Clear
12:45 AM 32.0 °F - 32.0 °F 100% 29.91 in 2.5 mi Calm Calm - N/A   Clear
12:46 AM 32.0 °F - 32.0 °F 100% 29.91 in 3.0 mi Calm Calm - N/A   Clear
12:55 AM 31.3 °F - 31.1 °F 99% 29.91 in 2.5 mi Calm Calm - N/A   Clear
12:56 AM 32.0 °F - 32.0 °F 100% 29.91 in 1.8 mi Calm Calm - N/A   Clear
12:57 AM 32.0 °F - 32.0 °F 100% 29.91 in 1.2 mi Calm Calm - N/A   Clear
12:59 AM 32.0 °F - 32.0 °F 100% 29.91 in 1.0 mi Calm Calm - N/A   Clear
1:00 AM 32.0 °F - 32.0 °F 100% 29.92 in 0.8 mi Calm Calm - N/A   Clear
1:02 AM 32.0 °F - 32.0 °F 100% 29.91 in 0.8 mi Calm Calm - N/A   Clear
1:03 AM 32.0 °F - 32.0 °F 100% 29.91 in 0.8 mi Calm Calm - N/A   Clear
1:04 AM 32.0 °F - 32.0 °F 100% 29.91 in 0.5 mi Calm Calm - N/A Fog Light Freezing Fog
1:13 AM 32.0 °F - 32.0 °F 100% 29.92 in 0.5 mi Calm Calm - N/A Fog Light Freezing Fog
1:14 AM 32.0 °F - 32.0 °F 100% 29.92 in 0.5 mi Calm Calm - N/A Fog Light Freezing Fog
1:19 AM 32.0 °F - 32.0 °F 100% 29.92 in 0.2 mi Calm Calm - N/A Fog Light Freezing Fog
1:22 AM 32.0 °F - 32.0 °F 100% 29.92 in 0.2 mi Calm Calm - N/A Fog Light Freezing Fog
1:23 AM 32.0 °F - 32.0 °F 100% 29.92 in 0.2 mi Calm Calm - N/A Fog Light Freezing Fog
1:24 AM 32.0 °F - 32.0 °F 100% 29.92 in 0.5 mi Calm Calm - N/A Fog Light Freezing Fog
1:26 AM 32.0 °F - 32.0 °F 100% 29.92 in 0.5 mi Calm Calm - N/A Fog Light Freezing Fog
1:31 AM 32.0 °F 28.7 °F 32.0 °F 100% 29.92 in 0.8 mi SSE 3.5 mph - N/A   Clear
1:33 AM 32.0 °F 28.7 °F 32.0 °F 100% 29.92 in 0.5 mi SSE 3.5 mph - N/A Fog Fog
1:38 AM 30.2 °F - 30.2 °F 100% 29.92 in 0.5 mi Calm Calm - N/A Fog Light Freezing Fog
1:39 AM 30.2 °F - 30.2 °F 100% 29.92 in 0.2 mi Calm Calm - N/A Fog Light Freezing Fog
1:41 AM 30.2 °F - 30.2 °F 100% 29.92 in 0.2 mi Calm Calm - N/A Fog Light Freezing Fog
1:48 AM 30.2 °F - 30.2 °F 100% 29.92 in 0.2 mi Calm Calm - N/A Fog Light Freezing Fog
1:50 AM 30.2 °F - 30.2 °F 100% 29.92 in 0.5 mi Calm Calm - N/A Fog Light Freezing Fog
1:55 AM 31.1 °F - 30.7 °F 99% 29.92 in 0.5 mi Calm Calm - N/A Fog Light Freezing Fog
2:02 AM 30.2 °F - 30.2 °F 100% 29.92 in 0.5 mi Calm Calm - N/A Fog Light Freezing Fog
2:11 AM 30.2 °F - 30.2 °F 100% 29.92 in 0.5 mi Calm Calm - N/A Fog Light Freezing Fog
2:17 AM 30.2 °F - 30.2 °F 100% 29.92 in 0.8 mi Calm Calm - N/A   Mostly Cloudy
2:36 AM 30.2 °F - 30.2 °F 100% 29.92 in 1.0 mi Calm Calm - N/A   Mostly Cloudy
2:38 AM 30.2 °F - 30.2 °F 100% 29.92 in 1.0 mi Calm Calm - N/A   Scattered Clouds
2:39 AM 30.2 °F - 30.2 °F 100% 29.92 in 1.2 mi Calm Calm - N/A   Scattered Clouds
2:42 AM 30.2 °F - 30.2 °F 100% 29.92 in 2.0 mi Calm Calm - N/A   Scattered Clouds
2:43 AM 30.2 °F - 30.2 °F 100% 29.93 in 2.5 mi Calm Calm - N/A   Scattered Clouds
2:44 AM 30.2 °F - 30.2 °F 100% 29.93 in 3.0 mi Calm Calm - N/A   Scattered Clouds
2:49 AM 30.2 °F - 30.2 °F 100% 29.92 in 7.0 mi Calm Calm - N/A   Mostly Cloudy
2:52 AM 30.2 °F - 30.2 °F 100% 29.92 in 9.0 mi Calm Calm - N/A   Mostly Cloudy
2:55 AM 29.7 °F - 29.5 °F 99% 29.92 in 10.0 mi Calm Calm - N/A   Mostly Cloudy
3:01 AM 30.2 °F - 30.2 °F 100% 29.92 in 2.5 mi Calm Calm - N/A   Scattered Clouds
3:05 AM 30.2 °F - 30.2 °F 100% 29.92 in 2.0 mi Calm Calm - N/A   Partly Cloudy
3:06 AM 30.2 °F - 30.2 °F 100% 29.92 in 2.5 mi Calm Calm - N/A   Partly Cloudy
3:07 AM 30.2 °F - 30.2 °F 100% 29.92 in 3.0 mi Calm Calm - N/A   Partly Cloudy
3:18 AM 30.2 °F - 30.2 °F 100% 29.93 in 3.0 mi Calm Calm - N/A   Scattered Clouds
3:23 AM 30.2 °F - 30.2 °F 100% 29.93 in 2.5 mi Calm Calm - N/A   Mostly Cloudy
3:25 AM 30.2 °F - 30.2 °F 100% 29.93 in 3.0 mi Calm Calm - N/A   Mostly Cloudy
3:26 AM 30.2 °F - 30.2 °F 100% 29.93 in 3.0 mi Calm Calm - N/A   Mostly Cloudy
3:27 AM 30.2 °F - 30.2 °F 100% 29.93 in 2.5 mi Calm Calm - N/A   Mostly Cloudy
3:31 AM 30.2 °F - 30.2 °F 100% 29.93 in 3.0 mi Calm Calm - N/A   Mostly Cloudy
3:50 AM 32.0 °F - 32.0 °F 100% 29.92 in 9.0 mi Calm Calm - N/A   Mostly Cloudy
3:55 AM 31.3 °F 27.9 °F 31.1 °F 99% 29.92 in 9.0 mi ESE 3.5 mph - N/A   Mostly Cloudy
4:05 AM 30.2 °F - 30.2 °F 100% 29.92 in 8.0 mi Calm Calm - N/A   Mostly Cloudy
4:10 AM 30.2 °F - 30.2 °F 100% 29.92 in 8.0 mi Calm Calm - N/A   Mostly Cloudy
4:18 AM 32.0 °F 28.7 °F 32.0 °F 100% 29.92 in 9.0 mi ESE 3.5 mph - N/A   Mostly Cloudy
4:24 AM 32.0 °F - 32.0 °F 100% 29.92 in 9.0 mi Calm Calm - N/A   Mostly Cloudy
4:25 AM 32.0 °F - 32.0 °F 100% 29.92 in 9.0 mi Calm Calm - N/A   Mostly Cloudy
4:35 AM 32.0 °F - 32.0 °F 100% 29.92 in 9.0 mi Calm Calm - N/A   Mostly Cloudy
4:55 AM 31.6 °F - 31.5 °F 99% 29.92 in 2.0 mi Calm Calm - N/A   Partly Cloudy
4:56 AM 32.0 °F - 32.0 °F 100% 29.92 in 1.5 mi Calm Calm - N/A   Partly Cloudy
4:58 AM 32.0 °F - 32.0 °F 100% 29.92 in 1.0 mi Calm Calm - N/A   Partly Cloudy
5:00 AM 32.0 °F - 30.2 °F 93% 29.93 in 0.8 mi Calm Calm - N/A   Partly Cloudy
5:03 AM 30.2 °F - 30.2 °F 100% 29.93 in 1.0 mi Calm Calm - N/A   Clear
5:06 AM 30.2 °F - 30.2 °F 100% 29.93 in 1.2 mi Calm Calm - N/A   Clear
5:08 AM 30.2 °F - 30.2 °F 100% 29.93 in 1.8 mi Calm Calm - N/A   Clear
5:09 AM 30.2 °F - 30.2 °F 100% 29.93 in 2.5 mi Calm Calm - N/A   Clear
5:11 AM 30.2 °F - 30.2 °F 100% 29.93 in 2.0 mi Calm Calm - N/A   Clear
5:12 AM 30.2 °F - 30.2 °F 100% 29.93 in 1.8 mi Calm Calm - N/A   Clear
5:13 AM 30.2 °F - 30.2 °F 100% 29.93 in 1.5 mi Calm Calm - N/A   Clear
5:15 AM 30.2 °F - 30.2 °F 100% 29.93 in 1.8 mi Calm Calm - N/A   Clear
5:16 AM 30.2 °F - 30.2 °F 100% 29.93 in 2.0 mi Calm Calm - N/A   Partly Cloudy
5:18 AM 30.2 °F - 30.2 °F 100% 29.93 in 1.8 mi Calm Calm - N/A   Partly Cloudy
5:19 AM 30.2 °F - 30.2 °F 100% 29.93 in 1.5 mi Calm Calm - N/A   Partly Cloudy
5:23 AM 30.2 °F - 30.2 °F 100% 29.93 in 1.8 mi Calm Calm - N/A   Partly Cloudy
5:24 AM 30.2 °F - 30.2 °F 100% 29.93 in 1.5 mi Calm Calm - N/A   Partly Cloudy
5:25 AM 30.2 °F - 30.2 °F 100% 29.93 in 1.0 mi Calm Calm - N/A   Mist
5:26 AM 30.2 °F - 30.2 °F 100% 29.93 in 0.8 mi Calm Calm - N/A   Mist
5:30 AM 30.2 °F - 28.4 °F 93% 29.93 in 0.8 mi Calm Calm - N/A   Mist
5:37 AM 30.2 °F 26.7 °F 28.4 °F 93% 29.93 in 1.0 mi SSE 3.5 mph - N/A   Mist
5:39 AM 30.2 °F 26.7 °F 30.2 °F 100% 29.93 in 0.8 mi SSE 3.5 mph - N/A   Partly Cloudy
5:46 AM 30.2 °F - 28.4 °F 93% 29.94 in 1.0 mi Calm Calm - N/A   Scattered Clouds
5:51 AM 30.2 °F 26.7 °F 30.2 °F 100% 29.94 in 1.0 mi SE 3.5 mph - N/A   Mostly Cloudy
5:53 AM 30.2 °F 26.7 °F 30.2 °F 100% 29.93 in 1.2 mi ESE 3.5 mph - N/A   Mostly Cloudy
5:55 AM 29.5 °F 24.5 °F 29.3 °F 99% 29.93 in 1.2 mi ESE 4.6 mph - N/A   Mostly Cloudy
5:57 AM 30.2 °F 26.7 °F 28.4 °F 93% 29.93 in 1.8 mi ESE 3.5 mph - N/A   Mostly Cloudy
5:58 AM 28.4 °F 24.6 °F 28.4 °F 100% 29.94 in 2.0 mi ESE 3.5 mph - N/A   Mostly Cloudy
5:59 AM 28.4 °F 24.6 °F 28.4 °F 100% 29.94 in 3.0 mi ESE 3.5 mph - N/A   Mostly Cloudy
6:24 AM 28.4 °F - 28.4 °F 100% 29.92 in 9.0 mi Calm Calm - N/A   Scattered Clouds
6:32 AM 28.4 °F - 28.4 °F 100% 29.94 in 8.0 mi Calm Calm - N/A   Mostly Cloudy
6:55 AM 30.6 °F - 30.4 °F 99% 29.95 in 10.0 mi Calm Calm - N/A   Overcast
7:45 AM 30.2 °F 26.7 °F 30.2 °F 100% 29.96 in 10.0 mi ESE 3.5 mph - N/A   Mostly Cloudy
7:52 AM 30.2 °F - 30.2 °F 100% 29.96 in 10.0 mi Calm Calm - N/A   Mostly Cloudy
7:55 AM 30.9 °F 27.5 °F 30.7 °F 99% 29.96 in 10.0 mi ESE 3.5 mph - N/A   Mostly Cloudy
8:55 AM 32.9 °F - 32.5 °F 99% 29.97 in 10.0 mi Calm Calm - N/A   Overcast
8:56 AM 33.8 °F - 32.0 °F 93% 29.97 in 10.0 mi Calm Calm - N/A   Overcast
9:16 AM 33.8 °F 30.8 °F 33.8 °F 100% 29.97 in 10.0 mi ESE 3.5 mph - N/A   Overcast
9:55 AM 35.6 °F - 35.4 °F 99% 29.97 in 10.0 mi Calm Calm - N/A   Mostly Cloudy
10:55 AM 39.6 °F - 37.6 °F 93% 29.97 in 10.0 mi Calm Calm - N/A   Overcast
11:06 AM 41.0 °F - 37.4 °F 87% 29.97 in 10.0 mi Calm Calm - N/A   Overcast
11:10 AM 41.0 °F - 37.4 °F 87% 29.98 in 10.0 mi Calm Calm - N/A   Light Drizzle
11:29 AM 41.0 °F - 39.2 °F 93% 29.98 in 10.0 mi Calm Calm - N/A   Overcast
11:47 AM 42.8 °F - 39.2 °F 87% 29.99 in 10.0 mi Calm Calm - N/A   Overcast
11:54 AM 42.8 °F - 39.2 °F 87% 29.98 in 10.0 mi Calm Calm - N/A   Overcast
11:55 AM 43.0 °F - 38.8 °F 85% 29.98 in 10.0 mi Calm Calm - 0.00 in   Overcast
12:10 PM 44.6 °F 41.4 °F 39.2 °F 81% 29.99 in 10.0 mi NNE 5.8 mph - N/A   Overcast
12:19 PM 44.6 °F 42.2 °F 39.2 °F 81% 29.98 in 10.0 mi North 4.6 mph - N/A   Overcast
12:30 PM 44.6 °F 41.4 °F 39.2 °F 81% 29.98 in 10.0 mi NE 5.8 mph - N/A   Overcast
12:31 PM 44.6 °F 41.4 °F 39.2 °F 81% 29.98 in 10.0 mi NE 5.8 mph - N/A   Overcast
12:49 PM 44.6 °F 42.2 °F 39.2 °F 81% 29.97 in 10.0 mi NNE 4.6 mph - N/A   Overcast
12:55 PM 43.5 °F 41.9 °F 38.3 °F 82% 29.97 in 10.0 mi ENE 3.5 mph - N/A   Overcast
1:27 PM 44.6 °F - 39.2 °F 81% 29.97 in 10.0 mi Calm Calm - N/A   Overcast
1:28 PM 44.6 °F - 39.2 °F 81% 29.97 in 10.0 mi Calm Calm - N/A   Overcast
1:55 PM 45.5 °F 44.2 °F 38.5 °F 76% 29.96 in 10.0 mi Variable 3.5 mph - N/A   Overcast
2:08 PM 44.6 °F - 37.4 °F 76% 29.96 in 10.0 mi Calm Calm - N/A   Overcast
3:18 PM 44.6 °F 43.1 °F 37.4 °F 76% 29.95 in 10.0 mi ESE 3.5 mph - N/A   Overcast
3:20 PM 44.6 °F - 37.4 °F 76% 29.95 in 10.0 mi Calm Calm - N/A   Overcast
3:55 PM 45.0 °F - 37.8 °F 76% 29.95 in 10.0 mi Calm Calm - N/A   Overcast
4:55 PM 43.3 °F 41.7 °F 38.3 °F 82% 29.95 in 10.0 mi SE 3.5 mph - N/A   Mostly Cloudy
5:55 PM 42.8 °F - 37.8 °F 82% 29.95 in 10.0 mi Calm Calm - N/A   Overcast
6:55 PM 40.5 °F - 37.2 °F 88% 29.95 in 10.0 mi Calm Calm - N/A   Overcast
7:55 PM 37.6 °F 34.0 °F 36.5 °F 96% 29.95 in 10.0 mi South 4.6 mph - N/A   Overcast
8:55 PM 38.5 °F 36.1 °F 37.4 °F 96% 29.94 in 10.0 mi SSW 3.5 mph - N/A   Overcast
9:55 PM 35.4 °F 30.5 °F 34.5 °F 97% 29.93 in 10.0 mi South 5.8 mph - N/A   Overcast
10:55 PM 31.6 °F - 31.1 °F 98% 29.91 in 3.0 mi Calm Calm - N/A   Clear
11:39 PM 32.0 °F - 32.0 °F 100% 29.90 in 2.5 mi Calm Calm - N/A   Clear
11:40 PM 32.0 °F - 32.0 °F 100% 29.90 in 2.0 mi Calm Calm - N/A   Clear
11:42 PM 32.0 °F - 32.0 °F 100% 29.90 in 1.8 mi Calm Calm - N/A   Clear
11:45 PM 32.0 °F - 32.0 °F 100% 29.90 in 1.5 mi Calm Calm - N/A   Clear
11:47 PM 33.8 °F - 32.0 °F 93% 29.90 in 1.2 mi Calm Calm - N/A   Clear
11:48 PM 33.8 °F - 32.0 °F 93% 29.90 in 1.0 mi Calm Calm - N/A   Clear
11:50 PM 33.8 °F - 32.0 °F 93% 29.90 in 0.8 mi Calm Calm - N/A   Clear
11:52 PM 32.0 °F - 32.0 °F 100% 29.90 in 0.8 mi Calm Calm - N/A   Clear
11:53 PM 32.0 °F - 32.0 °F 100% 29.90 in 0.8 mi Calm Calm - N/A   Clear
11:55 PM 32.4 °F - 32.2 °F 99% 29.90 in 0.8 mi Calm Calm - N/A   Clear
11:56 PM 32.0 °F - 32.0 °F 100% 29.90 in 0.8 mi Calm Calm - N/A   Clear
11:58 PM 32.0 °F - 32.0 °F 100% 29.90 in 0.8 mi Calm Calm - N/A   Clear
11:59 PM 32.0 °F - 32.0 °F 100% 29.90 in 1.0 mi Calm Calm - N/A   Partly Cloudy